Regional Weather Roundup
Issued by NWS

Home | Current Version | Previous Version | Graphics & Text | Print | Product List | Glossary On
Versions: 1 2 3 4 5 6 7 8 9 10 11 12 13 14 15 16 17 18 19 20 21 22 23 24 25 26 27 28 29 30 31 32 33 34 35 36 37 38 39 40 41 42 43 44 45 46 47 48 49 50
000
ASUS43 KLMK 291810
RWRKY
KENTUCKY REGIONAL WEATHER ROUNDUP
NATIONAL WEATHER SERVICE LOUISVILLE KY
200 PM EDT SAT AUG 29 2015

NOTE "FAIR" INDICATES FEW OR NO CLOUDS BELOW 12,000 FEET
WITH NO SIGNIFICANT WEATHER AND/OR OBSTRUCTIONS TO VISIBILITY.

KYZ001>023-026-027-061>063-070>075-291900-
WESTERN AND SOUTH CENTRAL KENTUCKY

CITY           SKY/WX    TMP DP  RH WIND       PRES   REMARKS
PADUCAH        PTSUNNY   84  69  60 W7        30.06F
HENDERSON      PTSUNNY   88  70  55 SW6       30.05F HX  92
OWENSBORO      PTSUNNY   89  69  51 S12       30.08F HX  93
HOPKINSVILLE   SUNNY     87  68  52 VRB5      30.08F HX  90
BOWLING GREEN  PTSUNNY   86  69  56 SW7       30.10F HX  90
GLASGOW        MOSUNNY   85  68  55 SW8       30.12F
$$

KYZ024-025-028>034-038-045-046-053-291900-
NORTH CENTRAL KENTUCKY

CITY           SKY/WX    TMP DP  RH WIND       PRES   REMARKS
LOUISVILLE/SDF PTSUNNY   85  68  56 S8        30.10F
LOUISVILLE/LOU PTSUNNY   86  68  54 S9        30.11F
FORT KNOX      MOSUNNY   85  69  59 S9        30.10F
$$

KYZ035>037-039>044-047>052-055>060-089>105-291900-
NORTHEAST KENTUCKY

CITY           SKY/WX    TMP DP  RH WIND       PRES   REMARKS
LEXINGTON      PTSUNNY   85  66  53 S12       30.15F
COVINGTON      PTSUNNY   85  67  54 SW9       30.12F
FRANKFORT      MOSUNNY   84  67  56 VRB6      30.13F
$$

KYZ054-064>069-076>088-106>120-291900-
SOUTHEAST KENTUCKY

CITY           SKY/WX    TMP DP  RH WIND       PRES   REMARKS
JACKSON        MOSUNNY   79  66  64 VRB5      30.20F
LONDON         FAIR      83  63  50 SW6       30.19F
SOMERSET       SUNNY     81  64  57 S7        30.18F
MIDDLESBORO    MOSUNNY   83  64  53 S3        30.21F
MONTICELLO     PTCLDY    85  69  58 S7        30.18F
$$



USA.gov is the U.S. government's official web portal to all federal, state and local government web resources and services.